Time,TemperatureF,DewpointF,PressureIn,WindDirection,WindDirectionDegrees,WindSpeedMPH,WindSpeedGustMPH,Humidity,HourlyPrecipIn,Conditions,Clouds,dailyrainin,SoftwareType,DateUTC
2013-01-29 00:00:00,13.0,11.0,29.74,SW,236,0.0,-999.0,90,-99.99,,,-99.99,,2013-01-29 07:00:00,
2013-01-29 00:01:00,14.0,11.0,29.74,SW,236,0.0,-999.0,89,-99.99,,,-99.99,,2013-01-29 07:01:00,
2013-01-29 00:11:00,14.0,11.0,29.74,SW,236,0.0,-999.0,89,-99.99,,,-99.99,,2013-01-29 07:11:00,
2013-01-29 00:21:00,13.0,11.0,29.74,SW,236,0.0,-999.0,90,-99.99,,,-99.99,,2013-01-29 07:21:00,
2013-01-29 00:31:00,13.0,11.0,29.74,SW,236,0.0,-999.0,90,-99.99,,,-99.99,,2013-01-29 07:31:00,
2013-01-29 00:42:00,13.0,11.0,29.74,SW,236,0.0,-999.0,90,-99.99,,,-99.99,,2013-01-29 07:42:00,
2013-01-29 00:52:00,13.0,11.0,29.74,SW,236,0.0,-999.0,90,-99.99,,,-99.99,,2013-01-29 07:52:00,
2013-01-29 01:00:00,10.0,8.0,29.72,SW,236,0.0,-999.0,90,-99.99,,,-99.99,,2013-01-29 08:00:00,
2013-01-29 01:21:00,10.0,8.0,29.72,SW,236,0.0,-999.0,90,-99.99,,,-99.99,,2013-01-29 08:21:00,
2013-01-29 01:32:00,10.0,8.0,29.72,SW,236,0.0,-999.0,90,-99.99,,,-99.99,,2013-01-29 08:32:00,
2013-01-29 01:42:00,10.0,8.0,29.72,SW,236,0.0,-999.0,90,-99.99,,,-99.99,,2013-01-29 08:42:00,
2013-01-29 01:52:00,10.0,8.0,29.72,SW,236,0.0,-999.0,90,-99.99,,,-99.99,,2013-01-29 08:52:00,
2013-01-29 03:00:00,12.0,9.0,29.72,SW,236,3.0,-999.0,89,-99.99,,,-99.99,,2013-01-29 10:00:00,
2013-01-29 03:21:00,12.0,9.0,29.72,SW,236,3.0,-999.0,89,-99.99,,,-99.99,,2013-01-29 10:21:00,
2013-01-29 03:32:00,12.0,9.0,29.72,SW,236,3.0,-999.0,89,-99.99,,,-99.99,,2013-01-29 10:32:00,
2013-01-29 03:42:00,12.0,9.0,29.72,SW,236,3.0,-999.0,89,-99.99,,,-99.99,,2013-01-29 10:42:00,
2013-01-29 03:52:00,12.0,9.0,29.72,SW,236,3.0,-999.0,89,-99.99,,,-99.99,,2013-01-29 10:52:00,
2013-01-29 04:30:00,15.0,12.0,29.70,SW,236,1.0,-999.0,89,-99.99,,,-99.99,,2013-01-29 11:30:00,
2013-01-29 04:53:00,15.0,12.0,29.70,SW,236,1.0,-999.0,89,-99.99,,,-99.99,,2013-01-29 11:53:00,
2013-01-29 05:02:00,15.0,12.0,29.70,SW,236,1.0,-999.0,89,-99.99,,,-99.99,,2013-01-29 12:02:00,
2013-01-29 05:12:00,15.0,12.0,29.70,SW,236,1.0,-999.0,89,-99.99,,,-99.99,,2013-01-29 12:12:00,
2013-01-29 05:22:00,15.0,12.0,29.70,SW,236,1.0,-999.0,89,-99.99,,,-99.99,,2013-01-29 12:22:00,
2013-01-29 06:23:00,9.0,6.0,29.72,SW,236,2.0,-999.0,86,-99.99,,,-99.99,,2013-01-29 13:23:00,
2013-01-29 06:32:00,9.0,6.0,29.72,SW,236,2.0,-999.0,86,-99.99,,,-99.99,,2013-01-29 13:32:00,
2013-01-29 06:43:00,9.0,6.0,29.72,SW,236,2.0,-999.0,86,-99.99,,,-99.99,,2013-01-29 13:43:00,
2013-01-29 06:52:00,10.0,8.0,29.75,SW,236,1.0,-999.0,90,-99.99,,,-99.99,,2013-01-29 13:52:00,
2013-01-29 07:00:00,12.0,10.0,29.77,NW,325,5.0,-999.0,91,-99.99,,,-99.99,,2013-01-29 14:00:00,
2013-01-29 07:02:00,10.0,8.0,29.75,SW,236,1.0,-999.0,90,-99.99,,,-99.99,,2013-01-29 14:02:00,
2013-01-29 07:12:00,12.0,10.0,29.77,NW,325,5.0,-999.0,91,-99.99,,,-99.99,,2013-01-29 14:12:00,
2013-01-29 07:22:00,12.0,10.0,29.77,NW,325,5.0,-999.0,91,-99.99,,,-99.99,,2013-01-29 14:22:00,
2013-01-29 07:33:00,12.0,10.0,29.77,NW,325,5.0,-999.0,91,-99.99,,,-99.99,,2013-01-29 14:33:00,
2013-01-29 07:43:00,12.0,10.0,29.77,NW,325,5.0,-999.0,91,-99.99,,,-99.99,,2013-01-29 14:43:00,
2013-01-29 07:53:00,12.0,10.0,29.77,NW,325,5.0,-999.0,91,-99.99,,,-99.99,,2013-01-29 14:53:00,
2013-01-29 08:00:00,10.0,8.0,29.80,NNW,331,4.0,-999.0,91,-99.99,,,-99.99,,2013-01-29 15:00:00,
2013-01-29 08:22:00,10.0,8.0,29.80,NNW,331,4.0,-999.0,91,-99.99,,,-99.99,,2013-01-29 15:22:00,
2013-01-29 08:33:00,10.0,8.0,29.80,NNW,331,4.0,-999.0,91,-99.99,,,-99.99,,2013-01-29 15:33:00,
2013-01-29 08:43:00,10.0,8.0,29.80,NNW,331,4.0,-999.0,91,-99.99,,,-99.99,,2013-01-29 15:43:00,
2013-01-29 08:53:00,10.0,8.0,29.80,NNW,331,4.0,-999.0,91,-99.99,,,-99.99,,2013-01-29 15:53:00,
2013-01-29 09:23:00,10.0,8.0,29.85,NE,36,9.0,-999.0,90,-99.99,,,-99.99,,2013-01-29 16:23:00,
2013-01-29 09:33:00,10.0,8.0,29.85,NE,36,9.0,-999.0,90,-99.99,,,-99.99,,2013-01-29 16:33:00,
2013-01-29 09:43:00,10.0,8.0,29.85,NE,36,9.0,-999.0,90,-99.99,,,-99.99,,2013-01-29 16:43:00,
2013-01-29 09:53:00,12.0,10.0,29.88,NE,49,6.0,-999.0,91,-99.99,,,-99.99,,2013-01-29 16:53:00,
2013-01-29 10:00:00,13.0,11.0,29.90,NE,35,8.0,-999.0,91,-99.99,,,-99.99,,2013-01-29 17:00:00,
2013-01-29 10:03:00,12.0,10.0,29.88,NE,49,6.0,-999.0,91,-99.99,,,-99.99,,2013-01-29 17:03:00,
2013-01-29 10:12:00,12.0,10.0,29.88,NE,49,6.0,-999.0,91,-99.99,,,-99.99,,2013-01-29 17:12:00,
2013-01-29 10:22:00,13.0,11.0,29.90,NE,35,8.0,-999.0,91,-99.99,,,-99.99,,2013-01-29 17:22:00,
2013-01-29 10:32:00,13.0,11.0,29.90,NE,35,8.0,-999.0,91,-99.99,,,-99.99,,2013-01-29 17:32:00,
2013-01-29 10:42:00,13.0,11.0,29.90,NE,35,8.0,-999.0,91,-99.99,,,-99.99,,2013-01-29 17:42:00,
2013-01-29 10:52:00,13.0,11.0,29.90,NE,35,8.0,-999.0,91,-99.99,,,-99.99,,2013-01-29 17:52:00,
2013-01-29 11:52:00,12.0,10.0,29.93,NNW,335,12.0,-999.0,91,-99.99,,,-99.99,,2013-01-29 18:52:00,
2013-01-29 12:00:00,13.0,11.0,29.95,NW,311,11.0,-999.0,91,-99.99,,,-99.99,,2013-01-29 19:00:00,
2013-01-29 12:02:00,12.0,10.0,29.93,NNW,335,12.0,-999.0,91,-99.99,,,-99.99,,2013-01-29 19:02:00,
2013-01-29 12:12:00,12.0,10.0,29.93,NNW,335,12.0,-999.0,91,-99.99,,,-99.99,,2013-01-29 19:12:00,
2013-01-29 12:22:00,13.0,11.0,29.95,NW,311,11.0,-999.0,91,-99.99,,,-99.99,,2013-01-29 19:22:00,
2013-01-29 12:32:00,13.0,11.0,29.95,NW,311,11.0,-999.0,91,-99.99,,,-99.99,,2013-01-29 19:32:00,
2013-01-29 12:42:00,13.0,11.0,29.95,NW,311,11.0,-999.0,91,-99.99,,,-99.99,,2013-01-29 19:42:00,
2013-01-29 12:52:00,13.0,11.0,29.95,NW,311,11.0,-999.0,91,-99.99,,,-99.99,,2013-01-29 19:52:00,
2013-01-29 13:30:00,16.0,14.0,29.99,NW,307,16.0,-999.0,92,-99.99,,,-99.99,,2013-01-29 20:30:00,
2013-01-29 13:53:00,16.0,14.0,29.99,NW,307,16.0,-999.0,92,-99.99,,,-99.99,,2013-01-29 20:53:00,
2013-01-29 14:03:00,16.0,14.0,29.99,NW,307,16.0,-999.0,92,-99.99,,,-99.99,,2013-01-29 21:03:00,
2013-01-29 14:12:00,16.0,14.0,29.99,NW,307,16.0,-999.0,92,-99.99,,,-99.99,,2013-01-29 21:12:00,
2013-01-29 14:22:00,16.0,14.0,29.99,NW,307,16.0,-999.0,92,-99.99,,,-99.99,,2013-01-29 21:22:00,
2013-01-29 14:53:00,15.0,12.0,30.03,NW,310,20.0,-999.0,89,-99.99,,,-99.99,,2013-01-29 21:53:00,
2013-01-29 15:03:00,15.0,12.0,30.03,NW,310,20.0,-999.0,89,-99.99,,,-99.99,,2013-01-29 22:03:00,
2013-01-29 15:12:00,15.0,12.0,30.03,NW,310,20.0,-999.0,89,-99.99,,,-99.99,,2013-01-29 22:12:00,
2013-01-29 15:22:00,12.0,9.0,30.07,NW,315,23.0,-999.0,89,-99.99,,,-99.99,,2013-01-29 22:22:00,
2013-01-29 15:33:00,12.0,9.0,30.07,NW,315,23.0,-999.0,89,-99.99,,,-99.99,,2013-01-29 22:33:00,
2013-01-29 15:42:00,12.0,9.0,30.07,NW,315,23.0,-999.0,89,-99.99,,,-99.99,,2013-01-29 22:42:00,
2013-01-29 15:53:00,10.0,7.0,30.09,NNW,329,24.0,-999.0,89,-99.99,,,-99.99,,2013-01-29 22:53:00,
2013-01-29 16:02:00,10.0,7.0,30.09,NNW,329,24.0,-999.0,89,-99.99,,,-99.99,,2013-01-29 23:02:00,
2013-01-29 16:12:00,10.0,7.0,30.09,NNW,329,24.0,-999.0,89,-99.99,,,-99.99,,2013-01-29 23:12:00,
2013-01-29 16:22:00,7.0,4.0,30.11,NW,315,25.0,-999.0,87,-99.99,,,-99.99,,2013-01-29 23:22:00,
2013-01-29 16:30:00,6.0,3.0,30.14,NW,315,22.0,-999.0,88,-99.99,,,-99.99,,2013-01-29 23:30:00,
2013-01-29 16:32:00,7.0,4.0,30.11,NW,315,25.0,-999.0,87,-99.99,,,-99.99,,2013-01-29 23:32:00,
2013-01-29 16:42:00,7.0,4.0,30.11,NW,315,25.0,-999.0,87,-99.99,,,-99.99,,2013-01-29 23:42:00,
2013-01-29 16:53:00,6.0,3.0,30.14,NW,315,22.0,-999.0,88,-99.99,,,-99.99,,2013-01-29 23:53:00,
2013-01-29 17:02:00,6.0,3.0,30.14,NW,315,22.0,-999.0,88,-99.99,,,-99.99,,2013-01-30 00:02:00,
2013-01-29 17:12:00,6.0,3.0,30.14,NW,315,22.0,-999.0,88,-99.99,,,-99.99,,2013-01-30 00:12:00,
2013-01-29 17:22:00,6.0,3.0,30.14,NW,315,22.0,-999.0,88,-99.99,,,-99.99,,2013-01-30 00:22:00,
2013-01-29 18:22:00,-1.0,-4.0,30.18,NW,304,23.0,-999.0,85,-99.99,,,-99.99,,2013-01-30 01:22:00,
2013-01-29 18:32:00,-1.0,-4.0,30.18,NW,304,23.0,-999.0,85,-99.99,,,-99.99,,2013-01-30 01:32:00,
2013-01-29 18:43:00,-1.0,-4.0,30.18,NW,304,23.0,-999.0,85,-99.99,,,-99.99,,2013-01-30 01:43:00,
2013-01-29 18:52:00,-2.0,-5.0,30.19,NW,315,22.0,-999.0,85,-99.99,,,-99.99,,2013-01-30 01:52:00,
2013-01-29 19:00:00,-3.0,-7.0,30.20,NW,306,22.0,-999.0,84,-99.99,,,-99.99,,2013-01-30 02:00:00,
2013-01-29 19:02:00,-2.0,-5.0,30.19,NW,315,22.0,-999.0,85,-99.99,,,-99.99,,2013-01-30 02:02:00,
2013-01-29 19:12:00,-2.0,-5.0,30.19,NW,315,22.0,-999.0,85,-99.99,,,-99.99,,2013-01-30 02:12:00,
2013-01-29 19:22:00,-3.0,-7.0,30.20,NW,306,22.0,-999.0,84,-99.99,,,-99.99,,2013-01-30 02:22:00,
2013-01-29 19:33:00,-3.0,-7.0,30.20,NW,306,22.0,-999.0,84,-99.99,,,-99.99,,2013-01-30 02:33:00,
2013-01-29 19:42:00,-3.0,-7.0,30.20,NW,306,22.0,-999.0,84,-99.99,,,-99.99,,2013-01-30 02:42:00,
2013-01-29 19:53:00,-3.0,-7.0,30.20,NW,306,22.0,-999.0,84,-99.99,,,-99.99,,2013-01-30 02:53:00,
2013-01-29 20:00:00,-5.0,-9.0,30.22,WNW,297,22.0,-999.0,84,-99.99,,,-99.99,,2013-01-30 03:00:00,
2013-01-29 20:22:00,-5.0,-9.0,30.22,WNW,297,22.0,-999.0,84,-99.99,,,-99.99,,2013-01-30 03:22:00,
2013-01-29 20:32:00,-5.0,-9.0,30.22,WNW,297,22.0,-999.0,84,-99.99,,,-99.99,,2013-01-30 03:32:00,
2013-01-29 20:42:00,-5.0,-9.0,30.22,WNW,297,22.0,-999.0,84,-99.99,,,-99.99,,2013-01-30 03:42:00,
2013-01-29 20:52:00,-5.0,-9.0,30.22,WNW,297,22.0,-999.0,84,-99.99,,,-99.99,,2013-01-30 03:52:00,
2013-01-29 22:52:00,-5.0,-9.0,30.18,NW,309,16.0,-999.0,82,-99.99,,,-99.99,,2013-01-30 05:52:00,
2013-01-29 23:02:00,-5.0,-9.0,30.18,NW,309,16.0,-999.0,82,-99.99,,,-99.99,,2013-01-30 06:02:00,
2013-01-29 23:11:00,-5.0,-9.0,30.18,NW,309,16.0,-999.0,82,-99.99,,,-99.99,,2013-01-30 06:11:00,
2013-01-29 23:21:00,-5.0,-9.0,30.19,WNW,295,12.0,-999.0,82,-99.99,,,-99.99,,2013-01-30 06:21:00,
2013-01-29 23:30:00,-6.0,-10.0,30.16,NW,313,12.0,-999.0,81,-99.99,,,-99.99,,2013-01-30 06:30:00,
2013-01-29 23:32:00,-5.0,-9.0,30.19,WNW,295,12.0,-999.0,82,-99.99,,,-99.99,,2013-01-30 06:32:00,
2013-01-29 23:42:00,-5.0,-9.0,30.19,WNW,295,12.0,-999.0,82,-99.99,,,-99.99,,2013-01-30 06:42:00,
2013-01-29 23:52:00,-6.0,-10.0,30.16,NW,313,12.0,-999.0,81,-99.99,,,-99.99,,2013-01-30 06:52:00,